Temperature
13 13 12 12 12 12 12 12 11 11 12 12 12 12 12 12 12 12 12 12 12 12 12 12 12 12 13 13 13 13 13 13 13 13 14 14 14 15 15 15 15 15 16
13 13 13 12 12 12 12 12 12 12 12 12 12 12 12 12 12 12 12 12 12 12 12 12 12 12 12 12 13 13 13 13 13 13 14 14 14 14 14 15 15 15 15
13 13 13 13 12 12 12 12 12 12 12 12 12 12 12 12 12 12 12 12 12 12 12 12 12 12 12 12 12 12 12 12 12 12 13 13 14 14 14 14 14 15 15
13 13 13 13 12 12 12 12 12 12 12 12 12 12 12 12 12 12 12 12 12 12 12 12 12 12 12 12 12 12 12 12 12 12 12 13 13 13 13 14 14 14 14
14 13 13 13 13 12 12 12 12 12 12 12 12 12 12 12 12 12 12 12 12 12 12 11 11 11 11 12 12 12 12 12 12 12 12 12 13 13 13 13 13 14 14
14 14 13 13 13 13 13 12 12 12 12 12 12 12 12 12 12 12 12 12 12 12 12 11 11 11 11 11 12 12 12 12 12 12 12 12 12 12 13 13 13 13 13
14 14 14 14 13 13 13 13 13 13 13 12 12 12 12 12 12 12 12 12 12 11 11 11 12 11 11 12 12 12 12 11 11 11 12 12 12 12 12 12 13 13 13
15 14 14 14 14 13 13 13 13 13 13 13 13 13 12 12 12 12 12 12 12 11 11 11 11 11 11 11 11 11 11 11 11 11 12 12 12 12 12 12 12 12 12
15 15 14 14 14 14 14 13 13 13 13 13 13 13 13 13 12 12 12 12 12 12 11 11 11 11 11 11 11 11 11 11 11 11 11 12 12 12 12 12 12 12 12
15 15 15 14 14 14 14 14 13 13 13 13 13 13 13 13 12 12 12 12 12 12 11 11 11 11 11 11 11 11 11 11 11 11 11 11 12 12 12 12 12 11 12
15 15 15 15 14 14 14 14 14 13 13 13 13 13 13 13 13 12 12 12 12 12 12 11 11 11 11 11 11 11 11 11 11 11 11 11 11 11 11 11 11 11 11
15 15 15 15 14 14 14 14 14 14 13 13 13 13 13 13 13 13 12 12 12 12 12 12 11 11 11 11 11 11 11 11 11 11 11 11 11 11 11 11 11 11 11
15 15 15 15 14 14 14 14 14 13 13 13 13 13 13 13 13 13 12 12 12 12 12 12 11 11 11 11 11 11 11 11 11 11 11 11 11 11 11 11 11 11 11
15 15 15 14 14 14 14 13 13 13 13 13 13 13 13 13 13 13 12 12 12 12 12 11 11 11 11 11 11 11 11 11 11 11 11 11 11 10 11 11 11 11 11
15 15 14 14 14 13 13 13 13 13 12 12 12 12 12 13 12 12 12 12 12 12 12 11 11 11 11 11 11 11 11 10 10 10 10 10 10 10 10 10 10 10 10
15 14 14 14 13 13 12 12 12 12 12 12 12 12 12 12 12 12 12 12 12 12 11 11 11 11 11 10 11 11 10 10 10 10 10 10 10 10 10 10 10 10 10
14 14 13 13 12 12 12 11 11 11 11 11 11 11 11 11 11 11 11 11 11 11 11 10 10 10 10 10 10 10 10 10 10 10 10 10 10 10 10 10 10 10 10
14 13 12 12 12 11 11 11 10 10 10 10 10 10 10 10 10 10 10 10 10 10 10 9 9 9 9 9 9 9 9 9 9 9 9 9 9 9 9 9 9 9 9
13 12 12 11 11 10 10 10 10 9 9 9 9 9 9 9 9 9 9 9 9 8 8 8 8 8 8 8 8 8 8 8 8 8 9 9 9 9 9 9 9 9 9
12 11 11 10 10 10 9 9 9 8 8 8 8 8 7 8 8 8 8 7 7 7 7 6 6 6 6 7 7 7 7 7 7 7 8 8 8 8 8 8 8 8 8
11 10 10 9 9 9 8 8 8 7 7 7 7 6 6 7 7 6 6 6 6 6 5 5 5 5 5 5 5 6 6 6 6 6 6 6 6 7 7 7 7 7 7
10 9 9 8 8 8 7 7 7 6 6 6 6 5 5 5 5 5 5 5 4 4 4 4 4 4 4 4 4 4 4 4 4 5 5 5 5 5 5 6 6 6 6
9 8 8 7 7 7 6 6 6 6 5 5 5 5 4 4 4 4 4 4 3 3 3 3 3 3 3 3 3 3 3 3 3 3 3 3 4 4 4 4 4 4 4
8 7 7 7 6 6 6 5 5 5 4 4 4 4 4 3 3 3 3 3 3 3 3 3 3 3 3 3 2 2 2 2 2 2 2 2 2 3 3 3 3 3 3
7 7 6 6 6 5 5 5 4 4 4 4 3 3 3 3 3 3 2 2 2 2 2 2 2 2 2 2 2 2 2 1 1 1 1 1 1 1 1 1 1 2 2
7 6 6 6 5 5 5 4 4 4 3 3 3 3 2 2 2 2 2 2 2 2 2 2 2 2 1 1 1 1 1 1 0 0 -0 -0 -0 0 0 0 0 0 1
Wind_Speed
3 2 2 3 3 3 3 4 4 4 4 5 5 5 5 4 3 3 2 2 2 2 2 1 1 1 1 1 1 2 2 3 4 3 2 2 2 3 3 3 5 6 6
3 2 2 2 2 3 3 4 4 4 4 4 5 5 5 4 4 3 3 3 3 3 3 2 2 1 1 1 1 2 2 3 3 4 3 2 3 3 3 3 3 4 5
3 2 2 2 2 3 3 4 4 4 5 5 5 5 5 4 4 3 3 3 3 3 3 2 3 2 2 1 1 2 2 2 2 3 3 2 2 2 2 3 3 3 4
3 3 3 3 3 3 3 3 4 3 4 5 4 4 4 4 4 3 3 3 3 3 3 2 2 2 2 2 2 2 2 2 2 3 3 3 3 2 2 3 3 3 3
4 4 5 4 3 3 3 3 3 3 4 4 4 5 5 4 3 3 3 3 3 4 4 3 3 3 4 3 2 2 2 2 2 2 3 3 3 2 3 2 3 2 3
5 5 4 3 3 3 3 3 4 4 4 4 4 4 5 4 6 6 4 3 3 3 4 5 5 5 5 5 5 4 3 3 3 3 3 4 4 4 3 3 3 2 3
6 5 4 3 4 4 3 3 4 4 3 4 4 4 5 6 7 6 5 2 2 3 3 4 4 5 6 4 5 5 4 4 4 4 5 5 4 4 4 4 4 4 4
5 5 5 4 4 4 3 4 4 3 3 4 4 4 4 6 7 6 4 3 2 3 3 3 3 5 5 4 4 4 4 4 4 3 4 5 5 5 5 5 4 3 2
5 6 5 5 5 4 4 5 4 3 4 4 4 4 4 6 7 6 3 1 2 3 3 3 3 4 7 6 4 4 5 5 5 4 4 5 6 6 4 2 3 3 3
7 6 5 5 5 5 6 5 3 3 4 4 4 4 4 5 7 6 3 0 2 3 4 4 5 5 7 6 3 3 5 5 6 6 5 5 4 4 3 3 4 3 2
5 4 4 4 5 5 4 3 3 3 3 4 4 5 4 5 7 7 4 1 2 2 3 3 4 7 7 7 5 3 5 6 5 5 4 3 3 3 2 2 2 3 4
3 3 3 3 3 3 3 3 3 2 3 4 4 5 4 4 4 5 4 3 3 2 3 3 4 7 8 8 6 6 7 5 3 3 3 3 3 3 3 2 2 3 4
3 2 2 2 2 1 2 2 2 1 2 3 3 4 5 4 4 5 4 3 2 2 2 3 5 6 7 6 7 9 7 3 3 3 3 3 3 3 3 3 2 2 3
4 2 1 0 1 1 1 0 0 1 2 2 3 4 4 4 4 3 2 2 2 1 1 3 5 6 5 5 6 5 4 3 2 3 4 3 3 3 2 2 2 2 2
4 2 1 1 1 1 2 2 2 2 1 1 2 2 2 4 5 3 0 0 0 0 2 3 4 4 6 5 5 5 4 4 4 3 3 4 4 3 3 2 2 2 2
4 3 2 2 2 2 3 4 7 6 11 10 8 4 2 3 5 6 6 5 5 5 5 4 4 5 5 5 6 6 5 5 5 4 4 4 4 4 4 3 2 3 4
6 4 3 3 3 2 2 3 3 5 9 12 13 12 10 10 11 10 10 11 11 10 7 5 5 5 5 5 5 5 5 6 5 5 5 5 5 5 4 4 4 4 5
6 5 5 3 3 3 4 3 3 4 4 5 9 14 14 14 14 13 11 10 9 9 6 6 6 6 6 6 6 6 6 6 6 6 6 6 6 5 5 5 5 6 6
6 5 4 4 4 4 4 4 5 5 5 4 4 7 11 11 14 15 12 8 7 7 6 5 5 5 5 6 6 6 6 6 7 7 7 7 7 7 7 7 7 8 7
6 10 8 6 5 5 5 5 5 5 5 4 5 4 4 6 7 7 7 6 6 5 5 5 5 5 5 5 5 5 6 6 7 7 7 7 8 8 8 9 8 8 7
6 7 11 7 5 5 5 5 4 4 4 4 4 5 7 5 5 5 5 5 5 5 4 4 4 4 5 5 5 6 6 6 6 7 8 8 8 8 8 8 9 9 9
7 6 6 6 5 5 4 4 4 4 4 4 3 4 8 5 4 4 4 4 4 3 3 3 3 3 4 4 5 5 6 6 7 8 8 8 9 9 9 9 9 9 9
7 7 6 5 5 6 5 4 4 4 3 3 2 3 3 3 3 3 3 3 3 3 3 3 3 4 4 5 5 4 5 6 7 8 9 9 9 9 9 10 11 12 11
7 7 7 6 5 5 4 4 3 3 3 2 2 1 1 1 1 2 2 2 3 3 3 3 3 5 7 6 7 7 7 9 10 8 10 10 11 10 10 10 11 12 12
7 7 7 6 5 5 4 4 3 3 2 2 1 1 0 0 1 2 2 2 3 4 4 5 5 6 8 9 10 10 13 15 15 14 11 10 11 12 12 12 12 13 13
7 7 6 5 5 5 5 4 4 3 3 2 2 1 1 1 2 2 3 3 3 4 5 5 7 9 11 11 12 14 16 17 17 18 14 10 11 11 13 12 15 13 14
Wind_Direction
262 277 304 314 323 339 344 335 335 339 348 353 351 354 360 4 6 14 5 9 10 354 352 351 310 273 257 249 218 212 221 215 241 261 250 261 259 260 265 244 243 237 235
243 259 286 307 333 343 332 329 337 343 347 349 350 357 359 2 5 9 3 4 3 354 349 352 339 345 337 278 231 225 228 223 225 257 274 262 253 259 261 253 247 242 235
224 239 279 300 313 314 314 324 336 341 345 350 356 356 353 353 356 0 5 4 357 342 338 343 333 341 333 321 286 252 246 241 227 241 266 259 259 261 260 257 245 243 246
209 223 252 268 274 287 304 319 326 331 337 338 341 340 341 343 344 349 1 3 356 349 341 329 317 303 290 292 290 270 254 249 240 244 254 258 256 258 241 242 252 236 246
203 224 245 260 270 286 299 308 316 324 327 327 336 339 339 335 332 344 347 357 359 356 350 339 322 317 308 292 277 261 248 245 248 253 261 262 253 243 239 227 237 248 248
208 228 242 253 263 273 284 299 312 317 320 329 331 331 333 332 340 347 352 358 357 355 346 341 340 348 348 339 322 308 279 254 246 249 260 256 256 245 245 235 223 229 251
213 230 237 242 254 263 276 294 297 300 310 316 317 321 317 316 331 341 355 8 357 347 340 341 347 348 351 342 339 344 340 315 272 250 255 255 254 244 235 239 227 226 236
214 230 234 231 246 260 270 275 278 283 289 295 301 306 306 313 328 334 348 11 359 343 336 330 332 333 336 345 350 349 340 328 302 273 257 261 260 253 242 239 229 225 250
218 231 232 223 236 251 259 264 265 270 281 282 286 300 304 309 325 329 337 355 341 329 328 330 329 330 339 356 2 348 338 327 320 302 283 286 286 271 242 216 206 213 247
225 231 229 217 224 240 250 257 255 252 269 284 289 287 285 295 312 321 328 264 313 316 325 329 333 335 339 351 351 337 330 320 325 327 324 322 316 305 270 224 211 215 232
223 224 228 224 229 239 250 252 256 265 282 291 294 295 287 285 301 310 303 205 235 285 306 315 319 336 342 345 344 315 300 306 312 317 315 317 322 318 308 273 228 222 228
192 206 233 244 248 250 250 267 264 263 286 297 305 309 300 292 288 297 299 265 222 227 274 290 303 329 340 342 340 328 326 328 320 324 324 321 321 318 310 301 278 251 241
167 199 238 267 279 283 261 276 288 271 273 293 301 304 309 313 309 306 304 305 284 220 258 296 323 344 349 347 344 344 344 339 330 326 319 309 296 293 305 310 305 286 277
167 195 211 242 328 352 359 357 0 319 300 299 304 303 308 315 316 317 316 330 347 345 338 356 6 9 7 350 348 350 349 326 314 304 303 299 300 302 301 299 303 307 299
156 155 131 112 101 65 62 64 67 45 65 4 313 304 320 323 324 321 3 51 127 66 69 42 28 15 10 3 355 348 346 349 342 319 308 308 307 304 296 284 276 281 272
141 136 124 113 102 100 93 68 54 63 54 52 49 50 23 11 10 36 56 59 60 80 81 53 32 20 8 359 353 350 349 350 341 329 322 315 310 306 300 291 271 268 271
141 138 121 112 109 106 104 103 78 43 45 44 43 47 50 45 48 55 66 66 61 67 64 49 34 20 9 360 354 353 351 344 339 339 337 333 325 315 306 299 290 281 277
129 127 122 113 107 100 96 91 89 80 55 32 31 43 48 52 52 53 60 68 59 54 53 45 31 20 15 11 5 2 359 358 358 355 352 347 341 331 324 315 304 292 287
126 122 115 108 100 97 94 90 86 82 76 56 36 34 39 49 54 51 57 64 64 55 46 40 30 21 16 14 11 6 5 7 3 360 357 351 345 339 331 325 317 307 297
128 130 123 113 104 98 94 94 90 85 78 65 51 34 24 47 54 45 46 51 54 47 37 31 23 18 12 7 6 3 2 1 359 358 352 348 343 338 332 327 323 319 311
126 128 124 113 107 108 105 103 100 95 87 74 55 49 65 67 60 50 46 42 41 35 26 21 14 8 5 1 359 359 358 354 352 349 344 340 337 333 328 323 319 316 313
127 124 124 123 119 114 111 108 104 100 94 85 64 55 62 63 57 51 43 35 29 24 15 9 2 358 354 350 349 352 351 347 343 340 335 331 328 325 323 322 321 318 315
130 128 124 121 121 123 114 109 110 108 102 92 84 69 59 56 50 44 32 16 10 5 359 357 353 345 340 338 335 334 337 333 330 326 325 322 321 319 318 316 315 314 313
136 137 137 134 131 131 131 129 126 123 118 111 102 93 76 53 35 17 359 346 343 337 338 335 327 324 326 328 325 320 319 321 323 320 316 313 312 310 310 309 308 308 307
141 143 145 147 147 147 146 145 144 142 141 145 151 156 187 319 320 320 319 319 321 317 317 318 315 315 315 316 317 316 316 318 319 319 315 308 305 304 304 303 303 303 302
146 148 149 150 153 156 158 161 168 171 176 187 197 214 239 263 280 292 302 307 310 308 308 310 309 310 312 313 312 313 314 315 314 314 312 305 302 300 301 299 299 298 297
Height
1504 1503 1502 1501 1499 1498 1496 1494 1492 1490 1488 1486 1484 1482 1481 1480 1479 1478 1477 1477 1477 1476 1476 1476 1476 1476 1476 1477 1477 1478 1478 1479 1479 1479 1480 1481 1482 1483 1484 1485 1487 1489 1491
1504 1503 1502 1501 1499 1498 1496 1494 1493 1491 1489 1487 1485 1483 1482 1480 1479 1478 1477 1477 1476 1475 1475 1474 1474 1474 1474 1474 1474 1475 1475 1476 1476 1476 1476 1477 1478 1479 1480 1481 1483 1484 1486
1503 1502 1501 1500 1499 1498 1496 1495 1493 1491 1490 1488 1486 1484 1483 1481 1480 1479 1478 1477 1476 1475 1474 1474 1473 1473 1472 1472 1472 1472 1472 1473 1473 1473 1473 1474 1474 1476 1476 1477 1478 1479 1481
1502 1501 1501 1500 1499 1497 1496 1495 1493 1492 1490 1489 1487 1485 1484 1482 1481 1480 1478 1477 1476 1475 1474 1473 1473 1472 1471 1471 1470 1470 1470 1470 1470 1470 1470 1470 1471 1472 1472 1473 1474 1475 1476
1501 1500 1500 1499 1498 1497 1496 1495 1493 1492 1491 1489 1488 1486 1485 1483 1482 1480 1479 1477 1476 1475 1474 1473 1472 1471 1470 1469 1469 1468 1468 1468 1468 1467 1467 1467 1468 1468 1469 1469 1470 1471 1472
1499 1499 1499 1498 1498 1497 1496 1495 1493 1492 1491 1489 1488 1486 1485 1484 1482 1481 1479 1478 1477 1475 1474 1473 1472 1471 1470 1469 1468 1467 1466 1466 1465 1465 1465 1465 1465 1465 1466 1466 1467 1468 1468
1498 1498 1498 1497 1497 1496 1495 1494 1493 1492 1491 1489 1488 1487 1485 1484 1483 1481 1480 1478 1477 1475 1474 1473 1472 1470 1469 1468 1467 1466 1465 1464 1464 1463 1462 1462 1462 1462 1462 1463 1463 1464 1464
1496 1496 1496 1496 1496 1495 1495 1494 1493 1492 1491 1489 1488 1487 1485 1484 1483 1481 1480 1478 1477 1476 1474 1473 1471 1470 1469 1467 1466 1465 1464 1463 1462 1461 1460 1459 1459 1459 1459 1459 1460 1460 1461
1494 1495 1495 1495 1494 1494 1494 1493 1492 1491 1490 1489 1488 1486 1485 1484 1482 1481 1480 1478 1477 1475 1474 1473 1471 1470 1468 1467 1465 1464 1463 1462 1460 1459 1458 1457 1456 1455 1455 1456 1456 1457 1457
1492 1493 1493 1493 1493 1492 1492 1491 1491 1490 1489 1488 1487 1485 1484 1483 1482 1480 1479 1478 1476 1475 1474 1472 1471 1469 1468 1466 1464 1463 1461 1460 1459 1457 1456 1455 1454 1453 1452 1452 1453 1453 1454
1490 1491 1491 1491 1491 1490 1490 1489 1489 1488 1487 1486 1485 1484 1483 1482 1480 1479 1478 1476 1475 1474 1473 1471 1470 1468 1467 1465 1464 1462 1460 1459 1457 1456 1454 1453 1452 1451 1450 1450 1450 1451 1451
1488 1489 1489 1489 1488 1488 1488 1487 1486 1485 1484 1484 1483 1482 1481 1480 1479 1477 1476 1475 1474 1472 1471 1470 1469 1467 1466 1464 1463 1461 1460 1458 1456 1455 1453 1452 1451 1450 1449 1448 1448 1448 1448
1486 1486 1486 1486 1486 1485 1485 1484 1483 1482 1482 1481 1480 1479 1478 1477 1476 1475 1474 1473 1472 1470 1469 1468 1467 1465 1464 1463 1461 1460 1458 1457 1455 1453 1452 1451 1450 1449 1448 1447 1446 1446 1445
1483 1483 1483 1483 1483 1482 1482 1481 1480 1479 1478 1478 1477 1476 1475 1474 1473 1472 1471 1470 1469 1468 1467 1466 1465 1463 1462 1461 1459 1458 1457 1455 1454 1452 1451 1450 1448 1447 1446 1445 1444 1443 1442
1480 1480 1480 1480 1480 1480 1479 1478 1477 1476 1475 1475 1474 1473 1472 1471 1470 1469 1468 1468 1467 1466 1465 1464 1463 1462 1460 1459 1458 1456 1455 1453 1452 1451 1449 1448 1446 1445 1444 1443 1442 1441 1440
1476 1477 1477 1477 1477 1477 1476 1476 1474 1474 1473 1472 1471 1470 1469 1468 1467 1466 1466 1465 1464 1463 1462 1461 1460 1459 1458 1456 1455 1454 1453 1451 1450 1448 1447 1445 1444 1443 1442 1441 1439 1438 1437
1473 1474 1474 1474 1474 1474 1474 1473 1473 1472 1471 1470 1469 1468 1467 1466 1465 1464 1463 1462 1461 1461 1460 1458 1457 1457 1455 1454 1453 1451 1450 1449 1447 1446 1444 1443 1441 1440 1438 1437 1436 1435 1433
1470 1471 1471 1472 1472 1472 1472 1471 1471 1470 1470 1468 1468 1467 1466 1464 1463 1462 1461 1460 1459 1458 1457 1456 1455 1455 1453 1452 1451 1449 1448 1446 1445 1443 1441 1440 1438 1436 1435 1433 1432 1431 1429
1467 1468 1468 1469 1469 1469 1469 1469 1469 1468 1468 1467 1466 1465 1465 1463 1462 1461 1460 1459 1457 1456 1456 1455 1454 1453 1452 1450 1449 1447 1445 1443 1442 1440 1438 1436 1435 1433 1431 1429 1428 1426 1424
1464 1465 1466 1467 1467 1467 1468 1468 1467 1467 1466 1466 1465 1465 1464 1463 1462 1460 1459 1458 1457 1456 1455 1454 1453 1451 1450 1448 1446 1445 1443 1441 1439 1437 1435 1433 1431 1429 1427 1425 1423 1421 1419
1461 1463 1464 1465 1465 1466 1466 1466 1466 1466 1466 1465 1465 1464 1464 1462 1461 1460 1459 1458 1457 1455 1454 1453 1452 1450 1448 1446 1444 1442 1440 1437 1435 1433 1431 1429 1426 1424 1422 1420 1418 1416 1414
1459 1460 1462 1463 1464 1464 1465 1465 1465 1465 1465 1465 1464 1464 1463 1462 1461 1460 1459 1457 1456 1455 1453 1452 1450 1448 1446 1444 1442 1439 1437 1434 1432 1429 1427 1424 1422 1420 1417 1415 1412 1410 1408
1457 1458 1460 1461 1462 1463 1464 1464 1465 1465 1465 1464 1464 1463 1463 1461 1460 1459 1458 1457 1455 1454 1452 1450 1448 1446 1444 1441 1439 1436 1433 1430 1428 1425 1422 1419 1417 1414 1412 1409 1407 1404 1402
1455 1456 1458 1459 1461 1462 1462 1463 1463 1464 1464 1464 1463 1463 1462 1461 1459 1458 1457 1455 1453 1452 1450 1447 1445 1443 1440 1437 1435 1432 1429 1426 1423 1420 1417 1414 1411 1409 1406 1403 1401 1398 1396
1452 1454 1456 1458 1459 1460 1461 1462 1462 1462 1462 1462 1462 1461 1460 1459 1458 1456 1455 1453 1451 1448 1446 1444 1441 1438 1435 1433 1430 1427 1424 1421 1418 1415 1412 1408 1405 1402 1400 1397 1394 1392 1389
1450 1452 1454 1456 1457 1458 1459 1460 1460 1461 1461 1460 1460 1459 1458 1457 1455 1454 1452 1449 1447 1445 1442 1439 1436 1433 1430 1427 1424 1421 1418 1415 1412 1409 1405 1402 1399 1396 1393 1390 1387 1385 1382